^^
B2 Weather Station Historical Data
Daily Summary for May 30, 2018 Units:  English    Metric   Both
Daily Weekly Monthly Yearly Custom
  High: Low: Average:
Temperature: 87.4 °F 70.0 °F 76.4 °F
Dew Point: 73.3 °F 65.4 °F 69.7 °F
Humidity: 94% 59% 81%
Wind Speed: 18.4mph 0.0mph 5.1mph
Wind Gust: 10.2mph - -
Wind- - SSE
Pressure: 29.75 in 29.52 in -
Precipitation: 0.20 in    
Historical Graphs
 
 
Tabular Data for May 30, 2018
Time Temperature Dew Point Pressure Wind Wind Speed Wind Gust Humidity Rainfall Rate (Hourly) solar
00:04 73.0 °F 66.5 °F 29.75 in Calm     80% 0.00 in 0.00 W/m2
00:09 73.0 °F 66.5 °F 29.75 in Calm     80% 0.00 in 0.00 W/m2
00:14 73.1 °F 66.6 °F 29.74 in Calm     80% 0.00 in 0.00 W/m2
00:19 73.1 °F 66.6 °F 29.74 in Calm     80% 0.00 in 0.00 W/m2
00:24 73.3 °F 66.8 °F 29.74 in Calm     80% 0.00 in 0.00 W/m2
00:29 73.4 °F 66.5 °F 29.73 in Calm     79% 0.00 in 0.00 W/m2
00:34 73.6 °F 66.7 °F 29.73 in Calm     79% 0.00 in 0.00 W/m2
00:39 73.7 °F 66.4 °F 29.73 in Calm     78% 0.00 in 0.00 W/m2
00:44 73.9 °F 66.6 °F 29.73 in Calm     78% 0.00 in 0.00 W/m2
00:49 74.0 °F 66.3 °F 29.73 in Calm     77% 0.00 in 0.00 W/m2
00:54 73.9 °F 66.2 °F 29.73 in Calm     77% 0.00 in 0.00 W/m2
00:59 73.9 °F 66.2 °F 29.73 in Calm     77% 0.00 in 0.00 W/m2
01:04 73.9 °F 66.2 °F 29.73 in Calm     77% 0.00 in 0.00 W/m2
01:09 73.8 °F 66.5 °F 29.73 in Calm     78% 0.00 in 0.00 W/m2
01:14 73.8 °F 66.5 °F 29.73 in Calm     78% 0.00 in 0.00 W/m2
01:19 73.8 °F 66.5 °F 29.73 in Calm     78% 0.00 in 0.00 W/m2
01:24 73.8 °F 66.5 °F 29.73 in Calm     78% 0.00 in 0.00 W/m2
01:29 73.8 °F 66.5 °F 29.72 in Calm     78% 0.00 in 0.00 W/m2
01:32 73.8 °F 66.5 °F 29.73 in Calm     78% 0.00 in 0.00 W/m2
01:39 74.6 °F 65.4 °F 29.73 in SSE 5.0 mph 3.6 mph 73% 0.00 in 0.00 W/m2
01:44 75.7 °F 66.0 °F 29.73 in SSW 4.6 mph   72% 0.00 in 0.00 W/m2
01:49 75.9 °F 65.8 °F 29.73 in Calm     71% 0.00 in 0.00 W/m2
01:54 76.0 °F 65.9 °F 29.73 in Calm     71% 0.00 in 0.00 W/m2
01:59 76.0 °F 66.3 °F 29.73 in Calm     72% 0.00 in 0.00 W/m2
02:04 76.0 °F 66.3 °F 29.73 in Calm     72% 0.00 in 0.00 W/m2
02:04 76.0 °F 66.3 °F 29.72 in Calm     72% 0.00 in 0.00 W/m2
02:14 76.0 °F 68.3 °F 29.72 in Calm     77% 0.00 in 0.00 W/m2
02:19 75.7 °F 68.0 °F 29.72 in Calm     77% 0.00 in 0.00 W/m2
02:24 75.6 °F 68.3 °F 29.72 in Calm     78% 0.00 in 0.00 W/m2
02:29 75.4 °F 68.1 °F 29.72 in Calm     78% 0.00 in 0.00 W/m2
02:34 75.2 °F 67.9 °F 29.72 in Calm     78% 0.00 in 0.00 W/m2
02:39 75.0 °F 68.0 °F 29.71 in Calm     79% 0.00 in 0.00 W/m2
02:44 74.7 °F 67.8 °F 29.71 in Calm     79% 0.00 in 0.00 W/m2
02:49 74.5 °F 67.9 °F 29.71 in Calm     80% 0.00 in 0.00 W/m2
02:54 74.2 °F 67.6 °F 29.71 in Calm     80% 0.00 in 0.00 W/m2
02:59 74.0 °F 67.8 °F 29.71 in Calm     81% 0.00 in 0.00 W/m2
03:04 73.7 °F 67.5 °F 29.71 in Calm     81% 0.00 in 0.00 W/m2
03:09 73.6 °F 67.4 °F 29.71 in Calm     81% 0.00 in 0.00 W/m2
03:14 73.2 °F 67.4 °F 29.71 in Calm     82% 0.00 in 0.00 W/m2
03:19 73.1 °F 67.3 °F 29.70 in Calm     82% 0.00 in 0.00 W/m2
03:24 73.0 °F 67.2 °F 29.70 in Calm     82% 0.00 in 0.00 W/m2
03:29 73.2 °F 67.4 °F 29.70 in Calm     82% 0.00 in 0.00 W/m2
03:34 73.3 °F 67.1 °F 29.70 in Calm     81% 0.00 in 0.00 W/m2
03:39 73.2 °F 67.0 °F 29.69 in Calm     81% 0.00 in 0.00 W/m2
03:44 73.2 °F 67.4 °F 29.69 in Calm     82% 0.00 in 0.00 W/m2
03:49 73.1 °F 67.3 °F 29.69 in Calm     82% 0.00 in 0.00 W/m2
03:54 73.1 °F 66.9 °F 29.69 in Calm     81% 0.00 in 0.00 W/m2
03:59 73.1 °F 66.9 °F 29.68 in Calm     81% 0.00 in 0.00 W/m2
04:02 73.1 °F 66.9 °F 29.69 in Calm     81% 0.00 in 0.00 W/m2
04:09 73.1 °F 66.9 °F 29.68 in Calm     81% 0.00 in 0.00 W/m2
04:14 73.1 °F 66.9 °F 29.68 in Calm     81% 0.00 in 0.00 W/m2
04:19 73.1 °F 67.3 °F 29.68 in Calm     82% 0.00 in 0.00 W/m2
04:24 72.9 °F 67.1 °F 29.68 in Calm     82% 0.00 in 0.00 W/m2
04:29 72.6 °F 66.8 °F 29.67 in Calm     82% 0.00 in 0.00 W/m2
04:34 72.4 °F 66.9 °F 29.67 in Calm     83% 0.00 in 0.00 W/m2
04:39 72.2 °F 66.7 °F 29.67 in Calm     83% 0.00 in 0.00 W/m2
04:44 71.9 °F 66.8 °F 29.68 in Calm     84% 0.00 in 0.00 W/m2
04:49 71.9 °F 66.8 °F 29.68 in Calm     84% 0.00 in 0.00 W/m2
04:54 71.9 °F 66.8 °F 29.68 in Calm     84% 0.00 in 0.00 W/m2
04:59 71.8 °F 66.7 °F 29.68 in Calm     84% 0.00 in 0.00 W/m2
05:04 71.8 °F 66.7 °F 29.68 in Calm     84% 0.00 in 0.00 W/m2
05:09 71.6 °F 66.5 °F 29.67 in Calm     84% 0.00 in 0.00 W/m2
05:14 71.5 °F 66.4 °F 29.67 in Calm     84% 0.00 in 0.00 W/m2
05:19 71.4 °F 66.3 °F 29.67 in Calm     84% 0.00 in 0.00 W/m2
05:24 71.5 °F 66.4 °F 29.67 in Calm     84% 0.00 in 0.00 W/m2
05:29 71.3 °F 66.2 °F 29.67 in Calm     84% 0.00 in 0.00 W/m2
05:34 71.3 °F 66.2 °F 29.67 in Calm     84% 0.00 in 0.00 W/m2
05:39 71.3 °F 66.2 °F 29.67 in Calm     84% 0.00 in 7.00 W/m2
05:44 71.3 °F 66.6 °F 29.67 in Calm     85% 0.00 in 12.00 W/m2
05:49 71.3 °F 66.6 °F 29.67 in Calm     85% 0.00 in 14.00 W/m2
05:54 71.3 °F 66.6 °F 29.67 in Calm     85% 0.00 in 16.00 W/m2
05:59 71.4 °F 66.7 °F 29.67 in Calm     85% 0.00 in 21.00 W/m2
06:04 71.6 °F 66.8 °F 29.67 in Calm     85% 0.00 in 28.00 W/m2
06:09 72.0 °F 67.2 °F 29.67 in Calm     85% 0.00 in 35.00 W/m2
06:14 72.4 °F 67.3 °F 29.66 in ENE 3.5 mph   84% 0.00 in 44.00 W/m2
06:19 72.8 °F 67.7 °F 29.66 in Calm     84% 0.00 in 53.00 W/m2
06:24 73.0 °F 67.9 °F 29.66 in Calm     84% 0.00 in 56.00 W/m2
06:29 73.3 °F 67.8 °F 29.66 in ENE 1.2 mph   83% 0.00 in 65.00 W/m2
06:34 73.6 °F 68.1 °F 29.66 in ENE 5.8 mph 3.2 mph 83% 0.00 in 69.00 W/m2
06:39 73.9 °F 68.4 °F 29.66 in Calm     83% 0.00 in 70.00 W/m2
06:44 74.2 °F 68.3 °F 29.66 in East 3.5 mph 0.9 mph 82% 0.00 in 79.00 W/m2
06:49 74.5 °F 68.6 °F 29.66 in East 4.6 mph   82% 0.00 in 97.00 W/m2
06:54 74.9 °F 68.7 °F 29.66 in ENE 4.6 mph 1.6 mph 81% 0.00 in 125.00 W/m2
06:59 75.3 °F 69.1 °F 29.66 in East 3.5 mph   81% 0.00 in 148.00 W/m2
07:04 75.8 °F 69.2 °F 29.66 in SE 8.1 mph 5.0 mph 80% 0.00 in 135.00 W/m2
07:09 76.3 °F 69.3 °F 29.65 in ESE 8.1 mph 2.2 mph 79% 0.00 in 144.00 W/m2
07:14 76.6 °F 69.6 °F 29.66 in East 6.9 mph 0.8 mph 79% 0.00 in 144.00 W/m2
07:19 77.0 °F 69.6 °F 29.66 in ESE 5.8 mph 5.1 mph 78% 0.00 in 206.00 W/m2
07:24 77.4 °F 70.0 °F 29.66 in ESE 5.0 mph 4.5 mph 78% 0.00 in 158.00 W/m2
07:29 77.5 °F 70.1 °F 29.66 in ESE 8.1 mph 4.9 mph 78% 0.00 in 144.00 W/m2
07:34 77.6 °F 70.2 °F 29.66 in ESE 6.9 mph 6.3 mph 78% 0.00 in 176.00 W/m2
07:39 77.8 °F 70.4 °F 29.66 in SE 11.5 mph 6.9 mph 78% 0.00 in 195.00 W/m2
07:44 77.9 °F 70.1 °F 29.66 in SE 9.2 mph 6.9 mph 77% 0.00 in 192.00 W/m2
07:49 78.2 °F 70.8 °F 29.66 in ESE 9.2 mph 5.2 mph 78% 0.00 in 508.00 W/m2
07:54 79.2 °F 71.0 °F 29.66 in SE 6.0 mph 4.6 mph 76% 0.00 in 169.00 W/m2
07:59 79.1 °F 70.9 °F 29.66 in SE 8.1 mph 5.4 mph 76% 0.00 in 165.00 W/m2
08:04 78.9 °F 70.7 °F 29.65 in SE 6.9 mph 6.1 mph 76% 0.00 in 336.00 W/m2
08:09 79.2 °F 71.4 °F 29.66 in SE 11.5 mph 7.4 mph 77% 0.00 in 376.00 W/m2
08:14 80.1 °F 71.8 °F 29.66 in SSE 9.2 mph 4.9 mph 76% 0.00 in 265.00 W/m2
08:19 80.3 °F 71.6 °F 29.66 in SE 12.7 mph 6.3 mph 75% 0.00 in 225.00 W/m2
08:24 80.4 °F 72.1 °F 29.66 in SSE 10.4 mph 4.2 mph 76% 0.00 in 278.00 W/m2
08:27 80.6 °F 71.9 °F 29.65 in SSE 9.0 mph 5.6 mph 75% 0.00 in 230.00 W/m2
08:34 80.4 °F 71.7 °F 29.66 in SE 12.0 mph 8.3 mph 75% 0.00 in 181.00 W/m2
08:39 80.0 °F 71.0 °F 29.65 in SSE 15.0 mph 9.4 mph 74% 0.00 in 167.00 W/m2
08:44 79.8 °F 71.2 °F 29.65 in SE 15.0 mph 9.1 mph 75% 0.00 in 211.00 W/m2
08:49 79.8 °F 71.2 °F 29.66 in SE 11.5 mph 8.1 mph 75% 0.00 in 253.00 W/m2
08:54 80.0 °F 71.4 °F 29.65 in ESE 11.5 mph 7.2 mph 75% 0.00 in 241.00 W/m2
08:59 80.0 °F 71.4 °F 29.65 in SSE 11.5 mph 7.2 mph 75% 0.00 in 190.00 W/m2
09:02 79.9 °F 71.3 °F 29.65 in SSE 10.4 mph 6.6 mph 75% 0.00 in 188.00 W/m2
09:09 79.9 °F 71.3 °F 29.65 in SE 11.5 mph 6.4 mph 75% 0.00 in 200.00 W/m2
09:14 79.9 °F 71.3 °F 29.65 in East 11.5 mph 8.5 mph 75% 0.00 in 241.00 W/m2
09:19 80.0 °F 71.8 °F 29.65 in SE 11.5 mph 9.3 mph 76% 0.00 in 316.00 W/m2
09:24 80.4 °F 72.1 °F 29.65 in ESE 11.5 mph 7.7 mph 76% 0.00 in 371.00 W/m2
09:29 81.4 °F 72.3 °F 29.64 in SE 11.5 mph 7.4 mph 74% 0.00 in 420.00 W/m2
09:34 81.5 °F 72.0 °F 29.64 in SE 11.5 mph 8.7 mph 73% 0.00 in 469.00 W/m2
09:39 81.5 °F 72.0 °F 29.64 in SE 9.2 mph 5.4 mph 73% 0.00 in 346.00 W/m2
09:44 81.7 °F 72.2 °F 29.64 in SSE 8.0 mph 4.2 mph 73% 0.00 in 258.00 W/m2
09:49 81.4 °F 71.5 °F 29.64 in SE 10.4 mph 6.9 mph 72% 0.00 in 278.00 W/m2
09:54 81.1 °F 72.0 °F 29.63 in SE 10.4 mph 3.6 mph 74% 0.00 in 330.00 W/m2
09:59 81.2 °F 71.7 °F 29.63 in ESE 11.5 mph 8.6 mph 73% 0.00 in 424.00 W/m2
10:04 82.0 °F 73.3 °F 29.63 in ESE 11.5 mph 4.9 mph 75% 0.00 in 974.00 W/m2
10:09 83.5 °F 73.1 °F 29.63 in SSE 9.2 mph 3.4 mph 71% 0.00 in 526.00 W/m2
10:14 84.4 °F 73.1 °F 29.63 in East 5.8 mph 1.0 mph 69% 0.00 in 800.00 W/m2
10:19 84.3 °F 72.1 °F 29.62 in ESE 11.0 mph 0.8 mph 67% 0.00 in 673.00 W/m2
10:24 83.9 °F 72.2 °F 29.62 in ESE 10.4 mph 2.5 mph 68% 0.00 in 301.00 W/m2
10:29 83.4 °F 71.7 °F 29.62 in SE 9.0 mph 7.4 mph 68% 0.00 in 294.00 W/m2
10:34 83.1 °F 71.9 °F 29.62 in SE 10.4 mph 7.7 mph 69% 0.00 in 237.00 W/m2
10:39 82.7 °F 71.9 °F 29.62 in ESE 10.4 mph 5.1 mph 70% 0.00 in 211.00 W/m2
10:44 82.7 °F 71.9 °F 29.62 in SSE 9.2 mph 5.3 mph 70% 0.00 in 304.00 W/m2
10:49 83.0 °F 72.2 °F 29.62 in SE 6.9 mph 2.3 mph 70% 0.00 in 424.00 W/m2
10:54 83.4 °F 71.7 °F 29.61 in Calm     68% 0.00 in 325.00 W/m2
10:59 83.6 °F 71.9 °F 29.61 in SE 8.1 mph 4.9 mph 68% 0.00 in 257.00 W/m2
11:04 83.6 °F 71.9 °F 29.61 in SSE 9.2 mph 5.7 mph 68% 0.00 in 378.00 W/m2
11:09 83.8 °F 72.1 °F 29.61 in SE 9.2 mph 4.8 mph 68% 0.00 in 334.00 W/m2
11:14 83.8 °F 71.7 °F 29.61 in ESE 9.2 mph 6.8 mph 67% 0.00 in 320.00 W/m2
11:18 83.9 °F 72.2 °F 29.61 in SE 8.1 mph 4.5 mph 68% 0.00 in 297.00 W/m2
11:24 84.1 °F 71.5 °F 29.61 in South 9.2 mph 3.2 mph 66% 0.00 in 338.00 W/m2
11:29 84.2 °F 72.0 °F 29.61 in SE 6.9 mph 2.3 mph 67% 0.00 in 281.00 W/m2
11:32 84.2 °F 71.2 °F 29.61 in SSE 10.0 mph 3.4 mph 65% 0.00 in 253.00 W/m2
11:39 84.3 °F 71.7 °F 29.60 in East 10.4 mph 5.7 mph 66% 0.00 in 624.00 W/m2
11:44 85.1 °F 72.9 °F 29.60 in SE 8.1 mph 2.8 mph 67% 0.00 in 608.00 W/m2
11:49 85.5 °F 71.5 °F 29.60 in East 11.5 mph 2.2 mph 63% 0.00 in 279.00 W/m2
11:54 85.1 °F 70.6 °F 29.59 in South 9.2 mph 4.8 mph 62% 0.00 in 207.00 W/m2
11:59 84.7 °F 70.7 °F 29.59 in ESE 11.5 mph 8.2 mph 63% 0.00 in 253.00 W/m2
12:04 84.5 °F 71.0 °F 29.59 in SE 11.5 mph 7.6 mph 64% 0.00 in 295.00 W/m2
12:09 84.6 °F 70.6 °F 29.59 in ESE 11.5 mph 7.0 mph 63% 0.00 in 348.00 W/m2
12:14 84.9 °F 71.4 °F 29.59 in SE 9.2 mph 5.3 mph 64% 0.00 in 403.00 W/m2
12:19 85.1 °F 71.1 °F 29.59 in SE 9.2 mph 4.6 mph 63% 0.00 in 362.00 W/m2
12:24 85.2 °F 71.6 °F 29.59 in East 9.2 mph 4.6 mph 64% 0.00 in 376.00 W/m2
12:29 85.3 °F 70.8 °F 29.58 in ESE 11.5 mph 7.8 mph 62% 0.00 in 478.00 W/m2
12:34 85.5 °F 71.0 °F 29.58 in SSE 11.5 mph 6.8 mph 62% 0.00 in 568.00 W/m2
12:39 86.1 °F 72.0 °F 29.58 in SE 11.5 mph 4.3 mph 63% 0.00 in 483.00 W/m2
12:44 86.7 °F 72.1 °F 29.57 in SSE 9.2 mph 1.6 mph 62% 0.00 in 591.00 W/m2
12:49 86.9 °F 70.8 °F 29.58 in ESE 11.5 mph 6.1 mph 59% 0.00 in 628.00 W/m2
12:54 86.9 °F 71.8 °F 29.57 in SSE 11.5 mph 7.8 mph 61% 0.00 in 642.00 W/m2
12:59 87.4 °F 71.8 °F 29.57 in SSE 10.4 mph 5.5 mph 60% 0.00 in 480.00 W/m2
13:04 86.9 °F 71.8 °F 29.57 in East 8.1 mph 4.9 mph 61% 0.00 in 288.00 W/m2
13:05 86.9 °F 71.8 °F 29.57 in East 8.1 mph 5.0 mph 61% 0.00 in 288.00 W/m2
13:14 86.2 °F 70.7 °F 29.57 in ESE 9.2 mph 5.8 mph 60% 0.00 in 596.00 W/m2
13:14 86.2 °F 70.7 °F 29.56 in ESE 9.2 mph 5.8 mph 60% 0.00 in 596.00 W/m2
13:24 86.1 °F 71.1 °F 29.57 in SE 9.2 mph 5.6 mph 61% 0.00 in 295.00 W/m2
13:29 85.9 °F 70.9 °F 29.57 in SE 10.4 mph 5.0 mph 61% 0.00 in 251.00 W/m2
13:34 85.3 °F 70.8 °F 29.57 in SE 10.4 mph 3.1 mph 62% 0.00 in 241.00 W/m2
13:44 84.8 °F 70.8 °F 29.56 in SSE 9.2 mph 2.7 mph 63% 0.00 in 232.00 W/m2
13:45 84.8 °F 70.8 °F 29.56 in SE 9.2 mph 3.1 mph 63% 0.00 in 232.00 W/m2
13:54 84.4 °F 70.0 °F 29.56 in SE 9.2 mph 5.9 mph 62% 0.00 in 207.00 W/m2
13:57 84.4 °F 70.4 °F 29.56 in SE 10.0 mph 5.5 mph 63% 0.00 in 202.00 W/m2
14:04 84.1 °F 70.1 °F 29.55 in SSE 11.5 mph 6.2 mph 63% 0.00 in 174.00 W/m2
14:09 84.0 °F 70.5 °F 29.55 in SE 11.5 mph 6.4 mph 64% 0.00 in 167.00 W/m2
14:14 83.7 °F 70.7 °F 29.55 in SE 15.0 mph 8.0 mph 65% 0.00 in 130.00 W/m2
14:19 82.2 °F 70.6 °F 29.55 in SSE 16.1 mph 9.4 mph 68% 0.00 in 132.00 W/m2
14:20 82.2 °F 71.0 °F 29.55 in SSE 16.1 mph 9.8 mph 69% 0.00 in 132.00 W/m2
14:29 79.3 °F 70.7 °F 29.55 in SE 16.1 mph 10.2 mph 75% 0.00 in 114.00 W/m2
14:32 78.7 °F 70.5 °F 29.55 in SE 17.0 mph 10.0 mph 76% 0.00 in 111.00 W/m2
14:37 78.0 °F 70.6 °F 29.55 in SE 12.7 mph 9.2 mph 78% 0.00 in 102.00 W/m2
14:44 77.4 °F 70.4 °F 29.55 in East 11.5 mph 7.3 mph 79% 0.00 in 93.00 W/m2
14:49 77.0 °F 70.4 °F 29.55 in SE 13.8 mph 8.3 mph 80% 0.00 in 86.00 W/m2
14:54 76.5 °F 70.6 °F 29.55 in SE 11.5 mph 9.2 mph 82% 0.00 in 84.00 W/m2
14:59 76.0 °F 70.8 °F 29.55 in SE 11.5 mph 7.1 mph 84% 0.00 in 84.00 W/m2
15:04 75.7 °F 71.2 °F 29.55 in ESE 11.5 mph 6.3 mph 86% 0.00 in 86.00 W/m2
15:05 75.6 °F 71.1 °F 29.55 in ESE 11.5 mph 5.8 mph 86% 0.00 in 88.00 W/m2
15:14 75.2 °F 71.1 °F 29.55 in SE 10.4 mph 3.1 mph 87% 0.00 in 98.00 W/m2
15:19 75.0 °F 71.2 °F 29.55 in SE 10.4 mph 6.0 mph 88% 0.00 in 105.00 W/m2
15:20 75.0 °F 71.2 °F 29.55 in SE 11.5 mph 6.8 mph 88% 0.00 in 105.00 W/m2
15:29 74.8 °F 71.3 °F 29.55 in SE 8.1 mph 2.3 mph 89% 0.00 in 120.00 W/m2
15:34 74.7 °F 71.2 °F 29.54 in ESE 5.8 mph 1.5 mph 89% 0.00 in 128.00 W/m2
15:35 74.7 °F 71.2 °F 29.54 in ESE 5.8 mph 1.3 mph 89% 0.00 in 128.00 W/m2
15:44 74.7 °F 71.6 °F 29.53 in ESE 3.5 mph 1.2 mph 90% 0.00 in 158.00 W/m2
15:49 74.6 °F 71.5 °F 29.52 in ESE 3.5 mph 1.5 mph 90% 0.00 in 181.00 W/m2
15:54 74.7 °F 71.6 °F 29.52 in ESE 5.8 mph 1.5 mph 90% 0.00 in 207.00 W/m2
15:59 74.8 °F 71.7 °F 29.52 in SE 3.5 mph 1.8 mph 90% 0.00 in 251.00 W/m2
16:04 75.0 °F 71.9 °F 29.52 in East 6.9 mph 2.4 mph 90% 0.00 in 288.00 W/m2
16:09 75.1 °F 72.0 °F 29.52 in ESE 9.0 mph 2.5 mph 90% 0.00 in 304.00 W/m2
16:19 76.4 °F 72.6 °F 29.53 in Calm     88% 0.00 in 487.00 W/m2
16:24 76.6 °F 72.8 °F 29.53 in Calm     88% 0.00 in 271.00 W/m2
16:29 76.5 °F 72.0 °F 29.53 in ESE 3.0 mph 0.3 mph 86% 0.00 in 218.00 W/m2
16:34 76.5 °F 71.7 °F 29.54 in SE 5.8 mph 2.2 mph 85% 0.00 in 211.00 W/m2
16:35 76.5 °F 71.7 °F 29.54 in SE 5.8 mph 2.1 mph 85% 0.00 in 211.00 W/m2
16:44 76.5 °F 72.0 °F 29.53 in SSE 5.8 mph 1.6 mph 86% 0.00 in 202.00 W/m2
16:45 76.5 °F 72.0 °F 29.53 in SSE 5.8 mph 1.0 mph 86% 0.00 in 202.00 W/m2
17:03 76.9 °F 71.3 °F 29.53 in SE 4.6 mph 0.7 mph 83% 0.00 in 236.00 W/m2
17:06 77.1 °F 71.5 °F 29.54 in Calm     83% 0.00 in 188.00 W/m2
17:19 77.5 °F 71.6 °F 29.53 in Calm     82% 0.00 in 146.00 W/m2
17:20 77.5 °F 71.6 °F 29.53 in Calm     82% 0.00 in 146.00 W/m2
17:25 77.6 °F 71.7 °F 29.53 in Calm     82% 0.00 in 134.00 W/m2
17:34 77.7 °F 72.1 °F 29.53 in WSW 6.0 mph 1.0 mph 83% 0.00 in 46.00 W/m2
17:47 77.2 °F 72.0 °F 29.53 in WSW 8.0 mph 1.2 mph 84% 0.00 in 37.00 W/m2
17:54 75.7 °F 71.9 °F 29.54 in WSW 5.8 mph 1.7 mph 88% 0.03 in 25.00 W/m2
17:59 75.3 °F 71.8 °F 29.53 in West 5.8 mph 1.6 mph 89% 0.03 in 26.00 W/m2
17:59 75.3 °F 71.8 °F 29.53 in WNW 5.8 mph 1.6 mph 89% 0.03 in 26.00 W/m2
18:09 74.9 °F 71.8 °F 29.53 in West 5.8 mph 1.6 mph 90% 0.04 in 28.00 W/m2
18:14 74.5 °F 71.7 °F 29.53 in West 5.8 mph 1.1 mph 91% 0.06 in 30.00 W/m2
18:15 74.5 °F 71.7 °F 29.53 in West 5.8 mph 0.8 mph 91% 0.06 in 30.00 W/m2
18:20 74.3 °F 71.8 °F 29.53 in WSW 5.8 mph 0.8 mph 92% 0.06 in 32.00 W/m2
18:27 74.0 °F 71.5 °F 29.52 in WNW 4.6 mph 0.5 mph 92% 0.06 in 46.00 W/m2
18:34 73.9 °F 71.7 °F 29.52 in WSW 3.5 mph 0.1 mph 93% 0.06 in 58.00 W/m2
18:34 73.9 °F 71.7 °F 29.52 in WSW 3.5 mph 0.1 mph 93% 0.06 in 58.00 W/m2
18:44 73.9 °F 71.7 °F 29.52 in Calm     93% 0.06 in 69.00 W/m2
18:44 73.9 °F 71.7 °F 29.52 in Calm     93% 0.06 in 69.00 W/m2
18:54 73.9 °F 71.7 °F 29.52 in Calm     93% 0.06 in 70.00 W/m2
18:57 73.9 °F 71.7 °F 29.53 in Calm     93% 0.06 in 69.00 W/m2
19:04 74.0 °F 71.8 °F 29.52 in West 2.3 mph   93% 0.06 in 63.00 W/m2
19:07 74.0 °F 71.8 °F 29.52 in West 2.3 mph   93% 0.06 in 63.00 W/m2
19:14 74.1 °F 71.9 °F 29.53 in Calm     93% 0.06 in 60.00 W/m2
19:19 74.0 °F 71.8 °F 29.53 in Calm     93% 0.06 in 56.00 W/m2
19:24 74.0 °F 71.5 °F 29.53 in West 3.0 mph   92% 0.06 in 51.00 W/m2
19:30 74.1 °F 71.6 °F 29.53 in Calm     92% 0.06 in 47.00 W/m2
19:37 74.1 °F 71.6 °F 29.53 in Calm     92% 0.06 in 37.00 W/m2
19:44 74.1 °F 71.6 °F 29.54 in Calm     92% 0.06 in 28.00 W/m2
19:47 74.0 °F 71.5 °F 29.54 in Calm     92% 0.06 in 25.00 W/m2
19:52 73.9 °F 71.4 °F 29.54 in Calm     92% 0.06 in 18.00 W/m2
19:59 73.8 °F 71.3 °F 29.54 in Calm     92% 0.06 in 11.00 W/m2
20:07 73.7 °F 71.5 °F 29.54 in Calm     93% 0.06 in 7.00 W/m2
20:14 73.6 °F 71.4 °F 29.55 in Calm     93% 0.06 in 0.00 W/m2
20:19 73.5 °F 71.4 °F 29.54 in Calm     93% 0.06 in 0.00 W/m2
20:19 73.5 °F 71.4 °F 29.54 in Calm     93% 0.06 in 0.00 W/m2
20:29 73.3 °F 71.2 °F 29.55 in Calm     93% 0.06 in 0.00 W/m2
20:32 73.3 °F 71.2 °F 29.55 in Calm     93% 0.06 in 0.00 W/m2
20:39 73.2 °F 71.1 °F 29.55 in Calm     93% 0.03 in 0.00 W/m2
20:43 73.1 °F 71.0 °F 29.55 in Calm     93% 0.02 in 0.00 W/m2
20:49 73.1 °F 71.0 °F 29.56 in Calm     93% 0.00 in 0.00 W/m2
20:49 73.1 °F 71.0 °F 29.56 in Calm     93% 0.00 in 0.00 W/m2
20:59 73.0 °F 70.9 °F 29.56 in Calm     93% 0.00 in 0.00 W/m2
21:04 73.0 °F 71.2 °F 29.56 in Calm     94% 0.00 in 0.00 W/m2
21:09 73.2 °F 71.4 °F 29.57 in Calm     94% 0.00 in 0.00 W/m2
21:13 73.3 °F 71.5 °F 29.58 in NW 4.0 mph   94% 0.00 in 0.00 W/m2
21:22 73.2 °F 71.1 °F 29.59 in NW 15.0 mph 2.0 mph 93% 0.00 in 0.00 W/m2
21:29 72.7 °F 69.6 °F 29.60 in SW 18.4 mph 9.1 mph 90% 0.01 in 0.00 W/m2
21:34 71.7 °F 68.9 °F 29.60 in SW 18.4 mph 9.4 mph 91% 0.02 in 0.00 W/m2
21:39 71.2 °F 68.8 °F 29.59 in South 17.3 mph 9.0 mph 92% 0.09 in 0.00 W/m2
21:44 70.8 °F 68.7 °F 29.58 in South 15.0 mph   93% 0.13 in 0.00 W/m2
21:45 70.8 °F 68.7 °F 29.58 in South 15.0 mph   93% 0.13 in 0.00 W/m2
21:53 70.3 °F 68.2 °F 29.58 in SW 2.3 mph   93% 0.14 in 0.00 W/m2
21:59 70.2 °F 68.4 °F 29.57 in SSW 1.2 mph   94% 0.14 in 0.00 W/m2
22:04 70.0 °F 68.2 °F 29.57 in Calm     94% 0.14 in 0.00 W/m2
22:05 70.0 °F 68.2 °F 29.57 in Calm     94% 0.14 in 0.00 W/m2
22:13 70.0 °F 68.2 °F 29.57 in Calm     94% 0.14 in 0.00 W/m2
22:15 70.0 °F 68.2 °F 29.57 in Calm     94% 0.14 in 0.00 W/m2
22:22 70.2 °F 68.1 °F 29.57 in SW 5.0 mph   93% 0.14 in 0.00 W/m2
22:29 70.4 °F 68.0 °F 29.58 in SW 3.5 mph 0.6 mph 92% 0.14 in 0.00 W/m2
22:29 70.4 °F 68.0 °F 29.58 in SW 3.5 mph 0.6 mph 92% 0.14 in 0.00 W/m2
22:37 70.4 °F 68.0 °F 29.58 in SW 3.5 mph 0.6 mph 92% 0.14 in 0.00 W/m2
22:44 70.4 °F 67.6 °F 29.58 in SW 3.5 mph   91% 0.14 in 0.00 W/m2
22:44 70.4 °F 67.6 °F 29.59 in SW 3.5 mph   91% 0.14 in 0.00 W/m2
22:54 70.3 °F 67.5 °F 29.59 in Calm     91% 0.14 in 0.00 W/m2
22:55 70.3 °F 67.9 °F 29.59 in Calm     92% 0.14 in 0.00 W/m2
23:02 70.3 °F 67.9 °F 29.59 in SSW 4.0 mph   92% 0.14 in 0.00 W/m2
23:09 70.1 °F 68.0 °F 29.59 in SSW 2.0 mph   93% 0.14 in 0.00 W/m2
23:14 70.0 °F 67.9 °F 29.59 in Calm     93% 0.14 in 0.00 W/m2
23:19 70.0 °F 67.9 °F 29.59 in SSW 6.9 mph 1.2 mph 93% 0.14 in 0.00 W/m2
23:24 70.0 °F 67.9 °F 29.60 in SW 7.0 mph 1.3 mph 93% 0.14 in 0.00 W/m2
23:34 70.1 °F 68.0 °F 29.60 in SSW 6.9 mph 1.9 mph 93% 0.14 in 0.00 W/m2
23:37 70.2 °F 68.1 °F 29.60 in SW 6.9 mph 1.7 mph 93% 0.14 in 0.00 W/m2
23:44 70.3 °F 68.2 °F 29.60 in South 5.8 mph 2.1 mph 93% 0.14 in 0.00 W/m2
23:53 70.2 °F 68.1 °F 29.60 in SW 5.8 mph 2.0 mph 93% 0.14 in 0.00 W/m2
23:57 70.2 °F 68.1 °F 29.61 in SW 5.8 mph 1.7 mph 93% 0.14 in 0.00 W/m2
Bourbonnais, Illinois, USA
Compliments of Weather Underground - 4 mb